Weather Roundup
Issued by NWS Springfield, MO

Home | Current Version | Previous Version | Text Only | Print | Product List | Glossary On
Versions: 1 2 3 4 5 6 7 8 9 10 11 12 13 14 15 16 17 18 19 20 21 22 23 24 25 26 27 28 29 30 31 32 33 34 35 36 37 38 39 40 41 42 43 44 45 46 47 48 49 50
992
NZUS99 KSGF 240857
HRRSGF

HOURLY WEATHER
NATIONAL WEATHER SERVICE SPRINGFIELD MO
300 AM CST SAT FEB 24 2018

......SGF CWA......

CITY           SKY/WX    TMP DP  RH WIND       PRES   REMARKS
SPRINGFIELD    LGT RAIN  51  50  96 SE13      29.95R
WEST PLAINS    LGT RAIN  48  46  93 E12G21    29.99F FOG
ROLLA          HVY RAIN  42  42 100 E16       30.01F FOG

......SURROUNDING SGF CWA......

CITY           SKY/WX    TMP DP  RH WIND       PRES   REMARKS
CHANUTE        LGT RAIN  36  35  96 NE12      29.98F FOG     WCI  28
PARSONS        CLOUDY    37  37 100 NE5       29.98S FOG     WCI  33
COFFEYVILLE    CLOUDY    39  38  96 N7        29.97F FOG     WCI  34
EMPORIA        CLOUDY    32  31  96 NE8       30.00F FOG     WCI  25
SILOAM SPRINGS LGT RAIN  52  52 100 S6        29.95F
HARRISON AR    FOG       48  48 100 VRB5      29.95F VSB 1/2
NEAR YELLVILLE LGT RAIN  50  48  93 E5        29.98F

......KANSAS AND MISSOURI......

CITY           SKY/WX    TMP DP  RH WIND       PRES   REMARKS
KANSAS CTY INT LGT RAIN  34  32  92 NE12      30.03F FOG     WCI  25
SEDALIA        MIX PCPN  37  37 100 NE10      30.04F FOG     WCI  30
ST JOSEPH      CLOUDY    31  30  96 NE15      30.07F FOG     WCI  20
ST LOUIS       RAIN      39  39 100 E10       30.09F FOG     WCI  32
KIRKSVILLE     FRZ RAIN  30  30 100 NE15      30.11F FOG     WCI  19
WICHITA        DRIZZLE   33  33 100 NE9       29.96F FOG     WCI  25
TOPEKA         LGT RAIN  34  34 100 NE7       30.04F FOG     WCI  28
OLATHE         MIX PCPN  33  33 100 E12       30.00F FOG     WCI  24

......TENNESSEE......

CITY           SKY/WX    TMP DP  RH WIND       PRES   REMARKS
MEMPHIS        NOT AVBL
NASHVILLE      LGT RAIN  60  58  92 CALM      30.10F

......ARKANSAS.......

CITY           SKY/WX    TMP DP  RH WIND       PRES   REMARKS
FAYETTEVILLE   RAIN      51  51 100 E3        29.95F FOG
FT SMITH       LGT RAIN  53  53 100 N6        29.96S FOG
LITTLE ROCK    FOG       52  52 100 CALM      30.00F VSB 1/8

......OKLAHOMA.......

CITY           SKY/WX    TMP DP  RH WIND       PRES   REMARKS
TULSA          CLOUDY    41  41 100 NW6       29.96F FOG
PONCA CITY     CLOUDY    36  34  92 NE7       29.96F FOG     WCI  30
MCALESTER      CLOUDY    48  48 100 CALM      29.96F
OKLAHOMA CITY  FOG       38  38 100 N5        29.94F VSB 1/2 WCI  34

......IOWA............

CITY           SKY/WX    TMP DP  RH WIND       PRES   REMARKS
DES MOINES     NOT AVBL
QUAD CITIES    FAIR      30  25  81 NE9       30.19F WCI  22

......ILLINOIS........

CITY           SKY/WX    TMP DP  RH WIND       PRES   REMARKS
QUINCY         NOT AVBL
CHICAGO        CLOUDY    33  28  81 NE7       30.23R WCI  27




USA.gov is the U.S. government's official web portal to all federal, state and local government web resources and services.